Valparaiso, IN

3:24 PM CDT on April 28, 2017 (GMT -0500)
Porter County Municipal

Weather History for KVPZ - January, 2013

Change the Weather History Date:

Sunday, January 6, 2013

  Actual Average Record
Temperature  
Mean Temperature 28 °F 24 °F  
Max Temperature 35 °F 31 °F 59 °F (2008)
Min Temperature 21 °F 17 °F -16 °F (2014)
Degree Days  
Heating Degree Days 37 41  
Month to date heating degree days 254 246  
Since 1 July heating degree days 2439 2648  
Cooling Degree Days 0 0  
Month to date cooling degree days 0 0  
Year to date cooling degree days 0 0  
Moisture  
Dew Point 24 °F    
Average Humidity 81    
Maximum Humidity 89    
Minimum Humidity 69    
Precipitation  
Precipitation 0.00 in 0.05 in 0.05 in (2002)
Month to date precipitation T 0.33  
Year to date precipitation T 0.33  
Sea Level Pressure  
Sea Level Pressure 30.11 in    
Wind  
Wind Speed 12 mph (WSW)    
Max Wind Speed 25 mph    
Max Gust Speed 31 mph    
Visibility 7 miles    
Events      
T = Trace of Precipitation, MM = Missing Value Source: NWS Daily Summary

Daily Weather History Graph

Daily Weather History Graph

Search for Another Location

Airport or City:

Trip Planner

Search our weather history database for the weather conditions in past years. The results will help you decide how hot, cold, wet, or windy it might be!

Date:

Astronomy

Jan. 06, 2013 Rise Set
Actual Time 7:14 AM CST 4:33 PM CST
Civil Twilight 6:43 AM CST 5:05 PM CST
Nautical Twilight 6:08 AM CST 5:39 PM CST
Astronomical Twilight 5:35 AM CST 6:13 PM CST
Moon 1:26 AM CST (1/6) 12:02 PM CST (1/6)
Length of Visible Light 10h 21m
Length of Day
9h 19m
Waning Crescent, 33% of the Moon is Illuminated
Jan 6
Waning Crescent
Jan 11
New
Jan 18
First Quarter
Jan 26
Full
Feb 3
Last Quarter

Hourly Weather History & Observations

Time (CST) Temp. Windchill Dew Point Humidity Pressure Visibility Wind Dir Wind Speed Gust Speed Precip Events Conditions
12:10 AM 33.8 °F 24.8 °F 30.2 °F 87% 29.98 in 9.0 mi SSW 12.7 mph - N/A   Overcast
12:19 AM 33.8 °F 25.3 °F 30.2 °F 87% 29.98 in 9.0 mi SSW 11.5 mph - N/A   Overcast
12:53 AM 34.0 °F 26.0 °F 30.9 °F 89% 29.99 in 9.0 mi SSW 10.4 mph - N/A   Overcast
1:49 AM 33.8 °F 25.3 °F 30.2 °F 87% 29.96 in 9.0 mi SSW 11.5 mph - N/A   Overcast
1:53 AM 34.0 °F 25.0 °F 30.9 °F 89% 29.98 in 9.0 mi SSW 12.7 mph - N/A   Overcast
2:53 AM 35.1 °F 25.5 °F 30.9 °F 85% 29.98 in 10.0 mi SW 15.0 mph - N/A   Overcast
3:53 AM 35.1 °F 25.9 °F 30.9 °F 85% 29.96 in 10.0 mi SW 13.8 mph - N/A   Overcast
4:36 AM 35.6 °F 27.1 °F 30.2 °F 81% 29.93 in 10.0 mi SW 12.7 mph - N/A   Overcast
4:53 AM 35.1 °F 25.9 °F 30.9 °F 85% 29.95 in 10.0 mi SW 13.8 mph - N/A   Overcast
5:53 AM 34.0 °F 25.0 °F 30.9 °F 89% 29.96 in 9.0 mi SW 12.7 mph - N/A   Overcast
6:19 AM 33.8 °F 23.2 °F 30.2 °F 87% 29.94 in 9.0 mi WSW 17.3 mph - N/A   Overcast
6:53 AM 30.0 °F 16.3 °F 26.1 °F 85% 29.99 in 8.0 mi West 24.2 mph 29.9 mph N/A   Overcast
7:53 AM 26.1 °F 12.7 °F 19.9 °F 78% 30.01 in 5.0 mi West 18.4 mph - N/A   Haze
8:07 AM 26.6 °F 14.7 °F 21.2 °F 80% 30.00 in 4.0 mi West 15.0 mph - N/A   Haze
8:53 AM 25.0 °F 10.9 °F 19.9 °F 81% 30.05 in 6.0 mi West 19.6 mph 24.2 mph N/A   Haze
9:08 AM 24.8 °F 14.0 °F 19.4 °F 80% 30.02 in 4.0 mi West 11.5 mph - N/A   Haze
9:51 AM 26.6 °F 15.2 °F 19.4 °F 74% 30.04 in 6.0 mi West 13.8 mph - N/A   Haze
9:53 AM 26.1 °F 13.6 °F 19.9 °F 78% 30.07 in 6.0 mi West 16.1 mph - N/A   Haze
10:53 AM 26.1 °F 15.6 °F 19.9 °F 78% 30.09 in 5.0 mi West 11.5 mph 20.7 mph N/A   Haze
11:53 AM 26.1 °F 14.0 °F 19.9 °F 78% 30.09 in 6.0 mi West 15.0 mph - N/A   Haze
12:53 PM 28.0 °F 18.1 °F 21.0 °F 75% 30.11 in 6.0 mi WNW 11.5 mph - N/A   Haze
1:53 PM 28.9 °F 19.2 °F 21.9 °F 75% 30.14 in 6.0 mi WNW 11.5 mph - N/A   Haze
2:53 PM 30.0 °F 21.7 °F 21.9 °F 72% 30.17 in 7.0 mi NW 9.2 mph - N/A   Overcast
3:53 PM 32.0 °F 25.6 °F 23.0 °F 69% 30.21 in 7.0 mi WNW 6.9 mph - N/A   Overcast
4:53 PM 32.0 °F 26.4 °F 24.1 °F 73% 30.23 in 10.0 mi NW 5.8 mph - N/A   Overcast
5:53 PM 32.0 °F 25.6 °F 24.1 °F 73% 30.27 in 9.0 mi WNW 6.9 mph - N/A   Overcast
6:53 PM 30.9 °F 22.8 °F 24.1 °F 76% 30.30 in 9.0 mi West 9.2 mph - N/A   Overcast
7:53 PM 28.9 °F 19.8 °F 23.0 °F 78% 30.33 in 7.0 mi West 10.4 mph - N/A   Overcast
8:53 PM 28.9 °F 20.4 °F 23.0 °F 78% 30.35 in 7.0 mi West 9.2 mph - N/A   Overcast
9:53 PM 27.0 °F 20.5 °F 21.9 °F 81% 30.35 in 6.0 mi West 5.8 mph - N/A   Haze
10:20 PM 24.8 °F 17.9 °F 19.4 °F 80% 30.32 in 6.0 mi West 5.8 mph - N/A   Haze
10:53 PM 23.0 °F 17.0 °F 19.0 °F 85% 30.37 in 6.0 mi SW 4.6 mph - N/A   Clear
11:53 PM 21.9 °F 14.5 °F 18.0 °F 85% 30.36 in 5.0 mi SW 5.8 mph - N/A   Clear